Location: Chiroubles
(46.1812°N, 4.6660°E)
Time: 18:21:51
(UTC+00:00)

Resurs 1-3 - Pass Details

Date: 15 August 2020
Orbit: 629 x 632 km, 97.9° (Epoch: 20 September)

Event Time Altitude Azimuth Distance (km) Brightness Sun altitude
Exits shadow 19:25:10 - 149° (SSE) 2,554 6.2 -6.4°
Reaches altitude 10° 19:26:32 10° 145° (SE) 2,009 5.6 -6.6°
Maximum altitude 19:30:44 49° 71° (ENE) 823 3.9 -7.3°
Drops below altitude 10° 19:34:59 10° 357° (N) 2,026 6.7 -7.9°
Sets 19:37:15 0° 352° (N) 2,939 7.6 -8.3°
